Total_Precipitation_Accumulation
0.42 0.46 0.66 0.62 0.52 0.52 0.55 0.56 0.57 0.53 0.49 0.45 0.41 0.41 0.41 0.48 0.58 0.65 0.64 0.68 0.83 1.03 1.20 1.28 1.31 1.28 1.28 1.24 1.17 1.07 1.04 1.14 1.23 1.28 1.31 1.34 1.49 1.71 1.86 2.06 2.15 1.60 1.40
0.21 0.30 0.51 0.54 0.42 0.39 0.41 0.42 0.44 0.46 0.44 0.41 0.38 0.39 0.39 0.40 0.48 0.55 0.60 0.67 0.78 0.90 0.97 0.99 1.05 1.05 1.01 0.99 0.97 1.00 1.07 1.25 1.48 1.59 1.72 1.61 1.74 1.89 1.87 1.93 2.11 1.54 1.38
0.16 0.18 0.28 0.43 0.34 0.30 0.31 0.34 0.35 0.37 0.37 0.37 0.35 0.38 0.40 0.42 0.49 0.59 0.68 0.73 0.77 0.80 0.83 0.85 0.86 0.85 0.85 0.86 0.84 0.92 1.05 1.31 1.64 1.95 2.26 1.68 1.29 1.79 1.85 1.84 1.68 1.35 1.24
0.15 0.13 0.15 0.27 0.31 0.26 0.27 0.31 0.34 0.32 0.31 0.33 0.34 0.34 0.39 0.47 0.55 0.64 0.75 0.74 0.73 0.73 0.75 0.73 0.78 0.72 0.74 0.77 0.79 0.92 1.07 1.36 1.72 2.15 2.15 1.48 0.96 1.29 1.55 1.51 1.29 1.07 1.06
0.12 0.11 0.16 0.23 0.25 0.23 0.25 0.32 0.32 0.30 0.31 0.33 0.35 0.40 0.44 0.53 0.60 0.60 0.65 0.70 0.67 0.67 0.69 0.70 0.75 0.67 0.64 0.70 0.82 0.95 1.10 1.47 1.92 1.99 1.46 1.49 1.49 1.39 1.24 1.21 1.19 1.02 0.98
0.11 0.10 0.16 0.25 0.23 0.24 0.28 0.32 0.31 0.29 0.32 0.34 0.37 0.45 0.53 0.60 0.63 0.57 0.57 0.58 0.59 0.59 0.58 0.64 0.69 0.65 0.65 0.70 0.89 1.02 1.21 1.55 1.79 1.38 1.11 1.27 1.25 1.28 1.23 1.20 1.14 1.02 0.95
0.12 0.14 0.18 0.26 0.26 0.26 0.28 0.31 0.33 0.32 0.35 0.38 0.40 0.45 0.50 0.56 0.58 0.52 0.50 0.52 0.53 0.55 0.53 0.54 0.59 0.67 0.76 0.87 1.01 1.06 1.24 1.50 1.33 1.12 1.24 1.41 1.25 1.20 1.45 1.52 1.33 1.09 0.86
0.12 0.14 0.19 0.26 0.27 0.27 0.29 0.32 0.32 0.33 0.36 0.39 0.40 0.39 0.41 0.46 0.53 0.49 0.49 0.50 0.47 0.47 0.52 0.55 0.55 0.64 0.73 0.85 0.94 1.00 1.15 1.24 0.98 0.92 1.14 1.31 1.04 1.15 1.59 1.68 1.52 1.34 1.04
0.20 0.19 0.26 0.26 0.26 0.31 0.34 0.33 0.32 0.33 0.35 0.38 0.41 0.41 0.42 0.40 0.45 0.48 0.52 0.52 0.50 0.51 0.52 0.55 0.57 0.60 0.63 0.73 0.87 0.98 1.15 1.27 1.05 1.01 1.00 1.16 0.96 1.14 1.55 1.56 1.42 1.38 1.17
0.46 0.44 0.41 0.37 0.37 0.36 0.36 0.38 0.39 0.38 0.38 0.41 0.42 0.45 0.53 0.54 0.50 0.54 0.53 0.54 0.55 0.55 0.59 0.65 0.69 0.73 0.78 0.82 0.92 1.05 1.20 1.09 1.00 1.02 1.07 1.01 0.97 1.32 1.60 1.56 1.50 1.47 1.31
0.76 0.77 0.65 0.61 0.47 0.48 0.44 0.41 0.53 0.51 0.53 0.59 0.61 0.64 0.88 1.18 1.04 1.01 0.75 0.78 0.77 0.76 0.80 0.87 0.94 1.01 0.99 1.01 1.17 1.23 1.11 1.09 1.24 1.08 1.04 0.99 1.18 1.54 1.70 1.74 1.74 1.71 1.59
1.02 0.87 0.81 0.82 0.67 0.68 0.67 0.77 1.05 0.97 0.99 1.10 1.15 1.10 1.42 1.56 1.50 1.08 1.04 1.25 1.30 1.34 1.32 1.38 1.55 1.55 1.29 1.10 1.34 1.66 1.33 1.24 1.26 1.04 0.91 1.03 1.32 1.67 1.81 1.89 1.76 1.75 1.66
1.17 1.03 1.11 1.08 0.97 0.98 1.21 1.05 1.19 1.42 1.58 1.56 1.54 1.70 1.86 1.55 1.33 1.20 1.36 1.59 1.63 1.69 1.71 1.85 2.10 1.95 1.89 1.88 1.92 1.92 1.59 1.47 1.37 1.14 1.20 1.42 1.64 1.95 2.11 2.03 1.90 1.77 1.64
1.70 1.64 1.59 1.61 1.59 1.56 1.41 1.41 1.33 1.38 1.49 1.65 1.73 1.72 1.90 1.94 1.86 1.74 1.78 1.77 1.76 1.88 2.18 2.20 2.35 2.46 2.47 2.21 2.08 2.08 1.86 1.69 1.61 1.57 1.75 1.91 1.96 2.20 2.41 2.25 2.07 1.91 1.79
2.48 2.54 2.49 2.35 2.15 2.18 2.15 1.98 1.62 1.65 1.62 1.60 1.87 1.92 2.00 2.15 2.21 2.15 2.03 2.05 1.77 1.82 2.16 2.50 2.39 2.53 2.68 2.50 2.20 2.05 1.97 1.80 1.77 1.71 1.87 2.07 1.97 2.03 2.33 2.42 2.36 2.19 2.10
3.26 3.64 3.40 3.17 2.85 2.75 2.73 2.57 2.41 2.09 2.00 1.79 1.91 2.01 2.19 2.39 2.45 2.41 2.21 2.16 1.85 1.81 2.05 2.34 2.35 2.56 2.59 2.61 2.23 2.00 1.90 1.95 1.91 1.76 1.86 2.09 2.08 1.87 2.03 2.37 2.60 2.66 2.50
3.89 4.40 4.14 3.98 3.92 3.69 3.55 3.15 2.68 2.35 2.16 2.25 2.32 2.39 2.50 2.57 2.65 2.61 2.45 2.18 2.06 2.13 2.21 2.22 2.30 2.69 2.53 2.44 2.24 2.20 2.11 2.06 1.94 1.85 1.84 2.04 1.85 1.74 1.74 1.92 2.28 2.57 2.85
4.07 4.45 4.78 4.48 4.82 4.72 4.42 3.93 3.40 3.12 2.97 2.79 2.69 2.73 2.58 2.57 2.61 2.74 2.41 2.06 2.21 2.37 2.44 2.42 2.44 2.65 2.65 2.73 2.63 2.45 2.23 2.08 1.67 1.59 1.63 1.70 1.84 1.57 1.69 1.92 2.07 2.19 2.69
4.38 4.84 5.29 5.52 5.60 5.19 4.80 4.39 4.08 3.83 3.54 3.08 2.58 2.38 2.24 2.11 2.01 2.10 1.85 1.77 1.88 1.99 1.91 1.81 2.12 2.34 2.46 2.59 2.42 2.25 1.91 1.74 1.56 1.48 1.52 1.35 1.49 1.56 1.61 1.77 1.97 2.01 2.48
4.54 5.34 5.73 5.83 5.43 5.03 4.67 4.20 3.97 3.66 3.29 2.91 2.43 2.07 1.84 1.77 1.62 1.72 1.50 1.44 1.64 1.79 1.80 1.90 2.05 2.04 1.99 2.08 1.84 1.70 1.54 1.32 1.33 1.32 1.18 1.19 1.20 1.19 1.41 1.67 1.88 1.64 2.13
4.62 5.53 5.85 5.57 4.98 4.55 4.14 3.64 3.25 2.89 2.62 2.50 2.20 1.85 1.69 1.62 1.62 1.79 1.56 1.67 1.69 1.74 1.74 1.77 1.85 1.74 1.53 1.70 1.97 1.78 1.43 1.25 1.20 1.11 1.08 1.17 1.08 1.12 1.35 1.61 1.82 1.92 1.76
3.99 4.73 5.01 4.63 3.98 3.41 3.13 2.96 2.76 2.66 2.34 2.12 2.01 1.88 1.58 1.52 1.54 1.57 1.62 1.39 1.41 1.54 1.46 1.48 1.74 1.70 1.47 1.57 1.88 1.99 1.74 1.65 1.40 0.91 0.95 1.05 1.07 1.21 1.38 1.46 1.74 2.03 1.97
3.45 3.44 3.55 3.42 2.91 2.56 2.45 2.44 2.40 2.46 2.27 2.01 1.86 1.69 1.44 1.35 1.28 1.32 1.31 1.30 1.40 1.35 1.39 1.46 1.54 1.64 1.53 1.43 1.54 1.95 1.86 1.65 1.41 1.15 1.04 1.00 1.14 1.38 1.46 1.58 1.62 1.73 1.85
2.57 2.38 2.38 2.45 2.27 2.20 2.10 2.11 1.97 1.83 1.77 1.66 1.65 1.55 1.42 1.32 1.24 1.14 1.17 1.15 1.23 1.24 1.45 1.26 1.32 1.50 1.53 1.37 1.40 1.52 1.56 1.60 1.58 1.39 1.18 1.06 1.13 1.26 1.41 1.45 1.58 1.70 1.77
1.68 1.72 1.88 2.12 2.13 2.03 1.97 2.06 2.04 1.77 1.60 1.50 1.51 1.57 1.43 1.30 1.23 1.12 1.15 1.21 1.23 1.22 1.27 1.29 1.47 1.46 1.42 1.38 1.36 1.42 1.53 1.57 1.47 1.47 1.41 1.20 1.12 1.02 1.16 1.41 1.60 1.76 1.74
1.10 1.23 1.43 1.80 1.95 1.86 1.82 1.85 1.81 1.72 1.64 1.49 1.38 1.39 1.37 1.28 1.25 1.25 1.22 1.29 1.28 1.26 1.26 1.27 1.35 1.36 1.40 1.45 1.37 1.34 1.50 1.60 1.53 1.55 1.45 1.27 1.16 0.97 1.00 1.25 1.61 1.88 1.91